Torna al catalogo

SENTINEL 1C

AttivoScienzaSSO
NORAD 62261·PAYLOAD·🇪🇺 EU

Lanciato Dec 5, 2024 da Guiana Space Centre

Loading…

Prossimi Passaggi (prossime 24 ore)

TLE

AggiornatoSource: Space-Track

Epoca: Sep 14, 2026, 14:50 UTC

1 62261U 24235A   26257.61834089 -.00000158  00000-0 -23720-4 0  9998
2 62261  98.1822 263.6593 0001285  89.9964 270.1383 14.59198020 94459

Traccia SENTINEL 1C in tempo reale con AllMySat

Download on the App Store